Location: Bismarck
(46.7731°N, 100.8200°W)
Time: 17:02:45
(UTC-05:00)

ISS - Visible Passes

Search period start: 29 July 2015 00:00
Search period end: 08 August 2015 00:00
Orbit: 401 x 403 km, 51.6° (Epoch: 29 July)

Date Brightness Start Highest point End Pass type
(mag) Time Alt. Az. Time Alt. Az. Time Alt. Az.
29 Jul -1.7 02:18:10 35° N 02:18:10 35° N 02:21:09 10° ENE visible
29 Jul -2.0 03:51:52 10° WNW 03:55:00 41° NNE 03:58:07 10° E visible
29 Jul -3.2 05:28:18 10° WNW 05:31:31 54° SSW 05:34:43 10° SE visible
30 Jul -0.8 01:27:14 17° NE 01:27:14 17° NE 01:28:08 10° ENE visible
30 Jul -1.7 02:59:51 17° NW 03:01:54 35° N 03:04:57 10° ENE visible
30 Jul -3.4 04:35:19 10° WNW 04:38:35 89° SW 04:41:52 10° ESE visible
30 Jul -2.7 22:52:40 10° SSW 22:55:37 32° SE 22:56:37 26° ESE visible
31 Jul -0.9 00:28:44 10° W 00:36:57 - ENE 00:29:33 16° W visible
31 Jul -1.3 02:09:40 28° NE 02:09:40 28° NE 02:11:48 10° ENE visible
31 Jul -2.8 03:42:24 10° WNW 03:45:36 60° NNE 03:48:50 10° ESE visible
31 Jul -2.4 05:19:02 10° W 05:21:53 27° SW 05:24:41 10° SSE visible
31 Jul -1.9 22:00:27 10° S 22:02:49 19° SE 22:05:13 10° E visible
31 Jul -3.3 23:35:41 10° WSW 23:38:56 79° NNW 23:41:47 13° ENE visible
01 Aug -1.2 01:12:39 10° WNW 01:14:29 25° NW 01:14:29 25° NW visible
01 Aug -0.7 02:55:05 15° E 02:55:05 15° E 02:55:43 10° E visible
01 Aug -3.2 04:28:02 33° W 04:29:02 46° SW 04:32:10 10° SE visible
01 Aug -3.4 22:42:46 10° SW 22:46:00 64° SSE 22:49:15 10° ENE visible
02 Aug -1.9 00:19:29 10° W 00:22:35 39° N 00:24:07 23° NE visible
02 Aug -0.4 01:56:25 10° WNW 01:56:44 12° WNW 01:56:44 12° WNW visible
02 Aug -2.8 21:50:05 10° SSW 21:53:07 37° SE 21:56:11 10° ENE visible
02 Aug -2.4 23:26:20 10° W 23:29:30 49° NNW 23:32:43 10° ENE visible
03 Aug -1.4 01:03:21 10° WNW 01:05:44 30° NNW 01:05:44 30° NNW visible
03 Aug -3.1 22:33:14 10° WSW 22:36:30 71° NNW 22:39:46 10° ENE visible
04 Aug -1.6 00:10:15 10° WNW 00:13:16 33° N 00:14:35 24° NE visible
04 Aug -0.3 01:46:57 10° WNW 01:47:10 11° WNW 01:47:10 11° WNW visible
04 Aug -1.8 23:17:05 10° W 23:20:10 37° N 23:23:14 10° ENE visible
05 Aug -1.3 00:53:58 10° WNW 00:55:58 28° NNW 00:55:58 28° NNW visible
05 Aug -2.2 22:23:56 10° W 22:27:05 45° NNW 22:30:15 10° ENE visible
06 Aug -1.7 00:00:56 10° WNW 00:03:58 34° N 00:04:45 29° NE visible
06 Aug -1.7 23:07:51 10° WNW 23:10:51 33° N 23:13:30 12° ENE visible
07 Aug -1.2 00:44:30 10° WNW 00:46:05 25° NW 00:46:05 25° NW visible
07 Aug -1.8 22:14:42 10° WNW 22:17:45 35° N 22:20:49 10° ENE visible
07 Aug -2.2 23:51:32 10° WNW 23:54:39 40° NNE 23:54:53 39° NNE visible
